Location: Bruderhein
(53.8035°N, 112.9265°W)
Time: 02:44:59
(UTC+00:00)

BEESAT - Pass Details

Date: 09 April 2023
Orbit: 696 x 706 km, 98.5° (Epoch: 31 May)

Event Time Altitude Azimuth Distance (km) Brightness Sun altitude
Rises 04:21:04 0° 19° (NNE) 3,112 ? -16.6°
Reaches altitude 10° 04:23:26 10° 26° (NNE) 2,187 ? -16.9°
Maximum altitude 04:28:01 44° 99° (E) 976 ? -17.4°
Enters shadow 04:29:38 32° 145° (SE) 1,196 ? -17.6°
